Year,Month,Day,Hour,Minute,Value (Times are PST for temperature in C)
2009,07,02,00,00,13.00
2009,07,02,00,05,12.80
2009,07,02,00,06,12.80
2009,07,02,00,07,12.80
2009,07,02,00,08,12.70
2009,07,02,00,09,12.70
2009,07,02,00,10,12.70
2009,07,02,00,11,12.60
2009,07,02,00,12,12.60
2009,07,02,00,13,12.60
2009,07,02,00,14,12.50
2009,07,02,00,15,12.50
2009,07,02,00,16,12.50
2009,07,02,00,17,12.40
2009,07,02,00,18,12.40
2009,07,02,00,19,12.40
2009,07,02,00,20,12.40
2009,07,02,00,21,12.40
2009,07,02,00,22,12.40
2009,07,02,00,23,12.30
2009,07,02,00,24,12.30
2009,07,02,00,25,12.30
2009,07,02,00,26,12.30
2009,07,02,00,27,12.30
2009,07,02,00,28,12.30
2009,07,02,00,29,12.30
2009,07,02,00,30,12.30
2009,07,02,00,31,12.20
2009,07,02,00,32,12.20
2009,07,02,00,33,12.20
2009,07,02,00,34,12.20
2009,07,02,00,35,12.20
2009,07,02,00,36,12.20
2009,07,02,00,37,12.20
2009,07,02,00,38,12.20
2009,07,02,00,39,12.20
2009,07,02,00,40,12.10
2009,07,02,00,41,12.10
2009,07,02,00,42,12.10
2009,07,02,00,43,12.10
2009,07,02,00,44,12.10
2009,07,02,00,45,12.10
2009,07,02,00,46,12.10
2009,07,02,00,47,12.10
2009,07,02,00,48,12.10
2009,07,02,00,49,12.10
2009,07,02,00,50,12.10
2009,07,02,00,51,12.10
2009,07,02,00,52,12.10
2009,07,02,00,53,12.10
2009,07,02,00,54,12.00
2009,07,02,00,55,12.00
2009,07,02,00,56,12.00
2009,07,02,00,57,12.00
2009,07,02,00,58,12.00
2009,07,02,00,59,11.90
2009,07,02,01,00,11.90
2009,07,02,01,01,11.90
2009,07,02,01,02,11.90
2009,07,02,01,03,11.90
2009,07,02,01,04,11.90
2009,07,02,01,05,11.90
2009,07,02,01,06,11.90
2009,07,02,01,07,11.90
2009,07,02,01,08,11.90
2009,07,02,01,09,11.90
2009,07,02,01,10,11.90
2009,07,02,01,11,11.80
2009,07,02,01,12,11.90
2009,07,02,01,13,11.90
2009,07,02,01,14,12.00
2009,07,02,01,15,12.00
2009,07,02,01,16,12.00
2009,07,02,01,17,12.00
2009,07,02,01,18,12.10
2009,07,02,01,19,12.20
2009,07,02,01,20,12.20
2009,07,02,01,21,12.30
2009,07,02,01,22,12.30
2009,07,02,01,23,12.40
2009,07,02,01,24,12.60
2009,07,02,01,25,12.60
2009,07,02,01,26,12.70
2009,07,02,01,27,12.70
2009,07,02,01,28,12.80
2009,07,02,01,29,12.80
2009,07,02,01,30,12.90
2009,07,02,01,31,12.90
2009,07,02,01,32,12.90
2009,07,02,01,33,12.90
2009,07,02,01,34,12.90
2009,07,02,01,35,12.90
2009,07,02,01,36,12.90
2009,07,02,01,37,12.90
2009,07,02,01,38,12.90
2009,07,02,01,39,12.90
2009,07,02,01,40,12.90
2009,07,02,01,41,13.00
2009,07,02,01,42,13.00
2009,07,02,01,43,12.90
2009,07,02,01,44,12.90
2009,07,02,01,45,12.90
2009,07,02,01,46,12.90
2009,07,02,01,47,12.90
2009,07,02,01,48,13.00
2009,07,02,01,49,13.10
2009,07,02,01,50,13.10
2009,07,02,01,51,13.20
2009,07,02,01,52,13.20
2009,07,02,01,53,13.30
2009,07,02,01,54,13.30
2009,07,02,01,55,13.30
2009,07,02,01,56,13.40
2009,07,02,01,57,13.40
2009,07,02,01,58,13.40
2009,07,02,01,59,13.50
2009,07,02,02,00,13.50
2009,07,02,02,01,13.60
2009,07,02,02,02,13.70
2009,07,02,02,03,13.70
2009,07,02,02,04,13.80
2009,07,02,02,05,13.80
2009,07,02,02,06,13.80
2009,07,02,02,07,13.80
2009,07,02,02,08,13.80
2009,07,02,02,09,13.90
2009,07,02,02,10,13.90
2009,07,02,02,11,13.90
2009,07,02,02,12,13.90
2009,07,02,02,13,13.90
2009,07,02,02,14,13.90
2009,07,02,02,15,13.90
2009,07,02,02,16,13.90
2009,07,02,02,17,13.90
2009,07,02,02,18,13.90
2009,07,02,02,19,13.90
2009,07,02,02,20,13.90
2009,07,02,02,21,13.90
2009,07,02,02,22,13.90
2009,07,02,02,23,14.00
2009,07,02,02,24,14.00
2009,07,02,02,25,14.00
2009,07,02,02,26,14.10
2009,07,02,02,27,14.10
2009,07,02,02,28,14.10
2009,07,02,02,29,14.10
2009,07,02,02,30,14.10
2009,07,02,02,31,14.10
2009,07,02,02,32,14.10
2009,07,02,02,33,14.10
2009,07,02,02,34,14.00
2009,07,02,02,35,14.00
2009,07,02,02,36,14.00
2009,07,02,02,37,13.90
2009,07,02,02,38,13.90
2009,07,02,02,39,13.90
2009,07,02,02,40,13.90
2009,07,02,02,41,13.80
2009,07,02,02,42,13.80
2009,07,02,02,43,13.90
2009,07,02,02,44,13.80
2009,07,02,02,45,13.80
2009,07,02,02,46,13.80
2009,07,02,02,47,13.80
2009,07,02,02,48,13.70
2009,07,02,02,49,13.60
2009,07,02,02,50,13.60
2009,07,02,02,51,13.50
2009,07,02,02,52,13.50
2009,07,02,02,53,13.40
2009,07,02,02,54,13.30
2009,07,02,02,55,13.30
2009,07,02,02,56,13.20
2009,07,02,02,57,13.20
2009,07,02,02,58,13.10
2009,07,02,02,59,13.10
2009,07,02,03,00,13.00
2009,07,02,03,01,13.00
2009,07,02,03,02,12.90
2009,07,02,03,03,12.80
2009,07,02,03,04,12.80
2009,07,02,03,05,12.70
2009,07,02,03,06,12.70
2009,07,02,03,07,12.60
2009,07,02,03,08,12.60
2009,07,02,03,09,12.50
2009,07,02,03,10,12.50
2009,07,02,03,11,12.40
2009,07,02,03,12,12.40
2009,07,02,03,13,12.30
2009,07,02,03,14,12.30
2009,07,02,03,15,12.30
2009,07,02,03,16,12.30
2009,07,02,03,17,12.20
2009,07,02,03,18,12.20
2009,07,02,03,19,12.20
2009,07,02,03,20,12.20
2009,07,02,03,21,12.20
2009,07,02,03,22,12.20
2009,07,02,03,23,12.10
2009,07,02,03,24,12.10
2009,07,02,03,25,12.10
2009,07,02,03,26,12.10
2009,07,02,03,27,12.10
2009,07,02,03,28,12.10
2009,07,02,03,29,12.10
2009,07,02,03,30,12.10
2009,07,02,03,31,12.10
2009,07,02,03,32,12.10
2009,07,02,03,33,12.10
2009,07,02,03,34,12.10
2009,07,02,03,35,12.10
2009,07,02,03,36,12.10
2009,07,02,03,37,12.10
2009,07,02,03,38,12.10
2009,07,02,03,39,12.10
2009,07,02,03,40,12.10
2009,07,02,03,41,12.10
2009,07,02,03,42,12.10
2009,07,02,03,43,12.10
2009,07,02,03,44,12.10
2009,07,02,03,45,12.10
2009,07,02,03,46,12.10
2009,07,02,03,47,12.10
2009,07,02,03,48,12.10
2009,07,02,03,49,12.10
2009,07,02,03,50,12.10
2009,07,02,03,51,12.10
2009,07,02,03,52,12.00
2009,07,02,03,53,12.00
2009,07,02,03,54,11.90
2009,07,02,03,55,11.90
2009,07,02,03,56,11.90
2009,07,02,03,57,11.90
2009,07,02,03,58,11.80
2009,07,02,03,59,11.80
2009,07,02,04,00,11.80
2009,07,02,04,01,11.80
2009,07,02,04,02,11.80
2009,07,02,04,03,11.80
2009,07,02,04,04,11.80
2009,07,02,04,05,11.80
2009,07,02,04,06,11.80
2009,07,02,04,07,11.80
2009,07,02,04,08,11.80
2009,07,02,04,09,11.70
2009,07,02,04,10,11.70
2009,07,02,04,11,11.70
2009,07,02,04,12,11.70
2009,07,02,04,13,11.70
2009,07,02,04,14,11.70
2009,07,02,04,15,11.70
2009,07,02,04,16,11.70
2009,07,02,04,17,11.60
2009,07,02,04,18,11.60
2009,07,02,04,19,11.60
2009,07,02,04,20,11.60
2009,07,02,04,21,11.50
2009,07,02,04,22,11.50
2009,07,02,04,23,11.50
2009,07,02,04,24,11.40
2009,07,02,04,25,11.50
2009,07,02,04,26,11.50
2009,07,02,04,27,11.50
2009,07,02,04,28,11.40
2009,07,02,04,29,11.40
2009,07,02,04,30,11.40
2009,07,02,04,31,11.40
2009,07,02,04,32,11.30
2009,07,02,04,33,11.30
2009,07,02,04,34,11.30
2009,07,02,04,35,11.30
2009,07,02,04,36,11.20
2009,07,02,04,37,11.20
2009,07,02,04,38,11.20
2009,07,02,04,39,11.10
2009,07,02,04,40,11.10
2009,07,02,04,41,11.00
2009,07,02,04,42,11.00
2009,07,02,04,43,10.90
2009,07,02,04,44,11.00
2009,07,02,04,45,11.00
2009,07,02,04,46,11.00
2009,07,02,04,47,11.00
2009,07,02,04,48,11.00
2009,07,02,04,49,11.10
2009,07,02,04,50,11.10
2009,07,02,04,51,11.00
2009,07,02,04,52,11.00
2009,07,02,04,53,11.00
2009,07,02,04,54,10.90
2009,07,02,04,55,10.90
2009,07,02,04,56,11.00
2009,07,02,04,57,11.00
2009,07,02,04,58,11.00
2009,07,02,04,59,10.90
2009,07,02,05,00,10.90
2009,07,02,05,01,10.90
2009,07,02,05,02,10.90
2009,07,02,05,03,10.80
2009,07,02,05,04,10.80
2009,07,02,05,05,10.90
2009,07,02,05,06,10.90
2009,07,02,05,07,10.90
2009,07,02,05,08,10.90
2009,07,02,05,09,10.90
2009,07,02,05,10,10.90
2009,07,02,05,11,10.90
2009,07,02,05,12,10.90
2009,07,02,05,13,10.80
2009,07,02,05,14,10.70
2009,07,02,05,15,10.70
2009,07,02,05,16,10.70
2009,07,02,05,17,10.60
2009,07,02,05,18,10.60
2009,07,02,05,19,10.60
2009,07,02,05,20,10.60
2009,07,02,05,21,10.60
2009,07,02,05,22,10.60
2009,07,02,05,23,10.60
2009,07,02,05,24,10.60
2009,07,02,05,25,10.60
2009,07,02,05,26,10.50
2009,07,02,05,27,10.40
2009,07,02,05,28,10.40
2009,07,02,05,29,10.30
2009,07,02,05,30,10.30
2009,07,02,05,31,10.30
2009,07,02,05,32,10.30
2009,07,02,05,33,10.30
2009,07,02,05,34,10.30
2009,07,02,05,35,10.40
2009,07,02,05,36,10.40
2009,07,02,05,37,10.40
2009,07,02,05,38,10.40
2009,07,02,05,39,10.40
2009,07,02,05,40,10.40
2009,07,02,05,41,10.40
2009,07,02,05,42,10.40
2009,07,02,05,43,10.40
2009,07,02,05,44,10.40
2009,07,02,05,45,10.30
2009,07,02,05,46,10.40
2009,07,02,05,47,10.40
2009,07,02,05,48,10.40
2009,07,02,05,49,10.50
2009,07,02,05,50,10.50
2009,07,02,05,51,10.60
2009,07,02,05,52,10.60
2009,07,02,05,53,10.60
2009,07,02,05,54,10.60
2009,07,02,05,55,10.60
2009,07,02,05,56,10.60
2009,07,02,05,57,10.60
2009,07,02,05,58,10.60
2009,07,02,05,59,10.60
2009,07,02,06,00,10.60
2009,07,02,06,01,10.60
2009,07,02,06,02,10.60
2009,07,02,06,03,10.60
2009,07,02,06,04,10.70
2009,07,02,06,05,10.70
2009,07,02,06,06,10.70
2009,07,02,06,07,10.80
2009,07,02,06,08,10.80
2009,07,02,06,09,10.80
2009,07,02,06,10,10.80
2009,07,02,06,11,10.80
2009,07,02,06,12,10.80
2009,07,02,06,13,10.80
2009,07,02,06,14,10.80
2009,07,02,06,15,10.80
2009,07,02,06,16,10.80
2009,07,02,06,17,10.80
2009,07,02,06,18,10.90
2009,07,02,06,19,10.90
2009,07,02,06,20,10.90
2009,07,02,06,21,11.00
2009,07,02,06,22,11.00
2009,07,02,06,23,11.10
2009,07,02,06,24,11.10
2009,07,02,06,25,11.10
2009,07,02,06,26,11.20
2009,07,02,06,27,11.20
2009,07,02,06,28,11.20
2009,07,02,06,29,11.30
2009,07,02,06,30,11.30
2009,07,02,06,31,11.30
2009,07,02,06,32,11.30
2009,07,02,06,33,11.30
2009,07,02,06,34,11.40
2009,07,02,06,35,11.40
2009,07,02,06,36,11.40
2009,07,02,06,37,11.40
2009,07,02,06,38,11.40
2009,07,02,06,39,11.50
2009,07,02,06,40,11.50
2009,07,02,06,41,11.60
2009,07,02,06,42,11.70
2009,07,02,06,43,11.80
2009,07,02,06,44,11.80
2009,07,02,06,45,11.90
2009,07,02,06,46,12.00
2009,07,02,06,47,12.10
2009,07,02,06,48,12.20
2009,07,02,06,49,12.20
2009,07,02,06,50,12.30
2009,07,02,06,51,12.40
2009,07,02,06,52,12.50
2009,07,02,06,53,12.50
2009,07,02,06,54,12.60
2009,07,02,06,55,12.60
2009,07,02,06,56,12.70
2009,07,02,06,57,12.70
2009,07,02,06,58,12.80
2009,07,02,06,59,12.80
2009,07,02,07,00,12.80
2009,07,02,07,01,12.80
2009,07,02,07,02,12.80
2009,07,02,07,03,12.80
2009,07,02,07,04,12.90
2009,07,02,07,05,12.90
2009,07,02,07,06,13.00
2009,07,02,07,07,13.00
2009,07,02,07,08,13.00
2009,07,02,07,09,13.10
2009,07,02,07,10,13.10
2009,07,02,07,11,13.10
2009,07,02,07,12,13.20
2009,07,02,07,13,13.20
2009,07,02,07,14,13.20
2009,07,02,07,15,13.20
2009,07,02,07,16,13.30
2009,07,02,07,17,13.30
2009,07,02,07,18,13.30
2009,07,02,07,19,13.30
2009,07,02,07,20,13.30
2009,07,02,07,21,13.40
2009,07,02,07,22,13.30
2009,07,02,07,23,13.30
2009,07,02,07,24,13.40
2009,07,02,07,25,13.40
2009,07,02,07,26,13.40
2009,07,02,07,27,13.50
2009,07,02,07,28,13.50
2009,07,02,07,29,13.60
2009,07,02,07,30,13.60
2009,07,02,07,31,13.60
2009,07,02,07,32,13.60
2009,07,02,07,33,13.70
2009,07,02,07,34,13.70
2009,07,02,07,35,13.70
2009,07,02,07,36,13.70
2009,07,02,07,37,13.70
2009,07,02,07,38,13.70
2009,07,02,07,39,13.70
2009,07,02,07,40,13.70
2009,07,02,07,41,13.80
2009,07,02,07,42,13.80
2009,07,02,07,43,13.80
2009,07,02,07,44,13.80
2009,07,02,07,45,13.80
2009,07,02,07,46,13.90
2009,07,02,07,47,13.90
2009,07,02,07,48,13.90
2009,07,02,07,49,13.90
2009,07,02,07,50,13.90
2009,07,02,07,51,13.90
2009,07,02,07,52,13.90
2009,07,02,07,53,13.90
2009,07,02,07,54,13.90
2009,07,02,07,55,13.90
2009,07,02,07,56,13.90
2009,07,02,07,57,13.90
2009,07,02,07,58,14.00
2009,07,02,07,59,14.00
2009,07,02,08,00,14.10
2009,07,02,08,01,14.10
2009,07,02,08,02,14.10
2009,07,02,08,03,14.10
2009,07,02,08,04,14.10
2009,07,02,08,05,14.10
2009,07,02,08,06,14.10
2009,07,02,08,07,14.20
2009,07,02,08,08,14.20
2009,07,02,08,09,14.20
2009,07,02,08,10,14.30
2009,07,02,08,11,14.30
2009,07,02,08,12,14.30
2009,07,02,08,13,14.40
2009,07,02,08,14,14.40
2009,07,02,08,15,14.40
2009,07,02,08,16,14.40
2009,07,02,08,17,14.40
2009,07,02,08,18,14.40
2009,07,02,08,19,14.40
2009,07,02,08,20,14.40
2009,07,02,08,21,14.40
2009,07,02,08,22,14.40
2009,07,02,08,23,14.40
2009,07,02,08,24,14.40
2009,07,02,08,25,14.50
2009,07,02,08,26,14.60
2009,07,02,08,27,14.60
2009,07,02,08,28,14.70
2009,07,02,08,29,14.70
2009,07,02,08,30,14.70
2009,07,02,08,31,14.70
2009,07,02,08,32,14.70
2009,07,02,08,33,14.70
2009,07,02,08,34,14.70
2009,07,02,08,35,14.70
2009,07,02,08,36,14.80
2009,07,02,08,37,14.80
2009,07,02,08,38,14.90
2009,07,02,08,39,15.00
2009,07,02,08,40,15.00
2009,07,02,08,41,15.00
2009,07,02,08,42,15.00
2009,07,02,08,43,15.00
2009,07,02,08,44,15.00
2009,07,02,08,45,15.00
2009,07,02,08,46,15.00
2009,07,02,08,47,15.00
2009,07,02,08,48,15.00
2009,07,02,08,49,15.00
2009,07,02,08,50,15.00
2009,07,02,08,51,15.00
2009,07,02,08,52,15.00
2009,07,02,08,53,15.00
2009,07,02,08,54,14.80
2009,07,02,08,55,14.70
2009,07,02,08,56,14.70
2009,07,02,08,57,14.70
2009,07,02,08,58,14.70
2009,07,02,08,59,14.70
2009,07,02,09,00,14.70
2009,07,02,09,01,14.90
2009,07,02,09,02,15.00
2009,07,02,09,03,15.00
2009,07,02,09,04,15.00
2009,07,02,09,05,15.00
2009,07,02,09,06,15.00
2009,07,02,09,07,15.00
2009,07,02,09,08,15.00
2009,07,02,09,09,15.00
2009,07,02,09,10,15.00
2009,07,02,09,11,15.00
2009,07,02,09,12,15.00
2009,07,02,09,13,15.20
2009,07,02,09,14,15.30
2009,07,02,09,15,15.40
2009,07,02,09,16,15.50
2009,07,02,09,17,15.60
2009,07,02,09,18,15.60
2009,07,02,09,19,15.70
2009,07,02,09,20,15.70
2009,07,02,09,21,15.60
2009,07,02,09,22,15.50
2009,07,02,09,23,15.40
2009,07,02,09,24,15.30
2009,07,02,09,25,15.30
2009,07,02,09,26,15.30
2009,07,02,09,27,15.40
2009,07,02,09,28,15.50
2009,07,02,09,29,15.60
2009,07,02,09,30,15.70
2009,07,02,09,31,15.80
2009,07,02,09,32,15.90
2009,07,02,09,33,16.00
2009,07,02,09,34,16.00
2009,07,02,09,35,16.10
2009,07,02,09,36,16.10
2009,07,02,09,37,16.10
2009,07,02,09,38,16.10
2009,07,02,09,39,16.20
2009,07,02,09,40,16.20
2009,07,02,09,41,16.30
2009,07,02,09,42,16.30
2009,07,02,09,43,16.20
2009,07,02,09,44,16.10
2009,07,02,09,45,16.10
2009,07,02,09,46,16.00
2009,07,02,09,47,16.00
2009,07,02,09,48,16.00
2009,07,02,09,49,16.00
2009,07,02,09,50,16.00
2009,07,02,09,51,16.10
2009,07,02,09,52,16.20
2009,07,02,09,53,16.40
2009,07,02,09,54,16.50
2009,07,02,09,55,16.60
2009,07,02,09,56,16.70
2009,07,02,09,57,16.80
2009,07,02,09,58,16.80
2009,07,02,09,59,16.70
2009,07,02,10,00,16.60
2009,07,02,10,01,16.50
2009,07,02,10,02,16.40
2009,07,02,10,03,16.40
2009,07,02,10,04,16.30
2009,07,02,10,05,16.30
2009,07,02,10,06,16.30
2009,07,02,10,07,16.30
2009,07,02,10,08,16.30
2009,07,02,10,09,16.30
2009,07,02,10,10,16.30
2009,07,02,10,11,16.30
2009,07,02,10,12,16.30
2009,07,02,10,13,16.30
2009,07,02,10,14,16.30
2009,07,02,10,15,16.40
2009,07,02,10,16,16.40
2009,07,02,10,17,16.50
2009,07,02,10,18,16.60
2009,07,02,10,19,16.60
2009,07,02,10,20,16.60
2009,07,02,10,21,16.60
2009,07,02,10,22,16.60
2009,07,02,10,23,16.60
2009,07,02,10,24,16.50
2009,07,02,10,25,16.40
2009,07,02,10,26,16.40
2009,07,02,10,27,16.30
2009,07,02,10,28,16.30
2009,07,02,10,29,16.30
2009,07,02,10,30,16.30
2009,07,02,10,31,16.30
2009,07,02,10,32,16.40
2009,07,02,10,33,16.40
2009,07,02,10,34,16.50
2009,07,02,10,35,16.50
2009,07,02,10,36,16.50
2009,07,02,10,37,16.50
2009,07,02,10,38,16.60
2009,07,02,10,39,16.60
2009,07,02,10,40,16.60
2009,07,02,10,41,16.60
2009,07,02,10,42,16.60
2009,07,02,10,43,16.50
2009,07,02,10,44,16.60
2009,07,02,10,45,16.60
2009,07,02,10,46,16.60
2009,07,02,10,47,16.70
2009,07,02,10,48,16.70
2009,07,02,10,49,16.80
2009,07,02,10,50,16.80
2009,07,02,10,51,16.90
2009,07,02,10,52,16.90
2009,07,02,10,53,17.00
2009,07,02,10,54,17.00
2009,07,02,10,55,17.00
2009,07,02,10,56,17.00
2009,07,02,10,57,17.00
2009,07,02,10,58,17.10
2009,07,02,10,59,17.20
2009,07,02,11,00,17.30
2009,07,02,11,01,17.30
2009,07,02,11,02,17.40
2009,07,02,11,03,17.60
2009,07,02,11,04,17.70
2009,07,02,11,05,17.70
2009,07,02,11,06,17.90
2009,07,02,11,07,18.10
2009,07,02,11,08,18.20
2009,07,02,11,09,18.30
2009,07,02,11,10,18.40
2009,07,02,11,11,18.50
2009,07,02,11,12,18.50
2009,07,02,11,13,18.60
2009,07,02,11,14,18.80
2009,07,02,11,15,18.80
2009,07,02,11,16,18.90
2009,07,02,11,17,18.90
2009,07,02,11,18,18.90
2009,07,02,11,19,18.90
2009,07,02,11,20,18.90
2009,07,02,11,21,19.00
2009,07,02,11,22,19.10
2009,07,02,11,23,19.10
2009,07,02,11,24,19.10
2009,07,02,11,25,19.10
2009,07,02,11,26,19.20
2009,07,02,11,27,19.10
2009,07,02,11,28,19.20
2009,07,02,11,29,19.20
2009,07,02,11,30,19.30
2009,07,02,11,31,19.30
2009,07,02,11,32,19.30
2009,07,02,11,33,19.30
2009,07,02,11,34,19.20
2009,07,02,11,35,19.20
2009,07,02,11,36,19.10
2009,07,02,11,37,19.00
2009,07,02,11,38,19.00
2009,07,02,11,39,18.90
2009,07,02,11,40,18.90
2009,07,02,11,41,18.90
2009,07,02,11,42,18.80
2009,07,02,11,43,18.80
2009,07,02,11,44,18.80
2009,07,02,11,45,18.70
2009,07,02,11,46,18.70
2009,07,02,11,47,18.70
2009,07,02,11,48,18.80
2009,07,02,11,49,18.80
2009,07,02,11,50,18.90
2009,07,02,11,51,18.90
2009,07,02,11,52,18.80
2009,07,02,11,53,18.70
2009,07,02,11,54,18.70
2009,07,02,11,55,18.60
2009,07,02,11,56,18.50
2009,07,02,11,57,18.40
2009,07,02,11,58,18.30
2009,07,02,11,59,18.30
2009,07,02,12,00,18.30
2009,07,02,12,01,18.30
2009,07,02,12,02,18.30
2009,07,02,12,03,18.40
2009,07,02,12,04,18.40
2009,07,02,12,05,18.40
2009,07,02,12,06,18.40
2009,07,02,12,07,18.40
2009,07,02,12,08,18.40
2009,07,02,12,09,18.30
2009,07,02,12,10,18.30
2009,07,02,12,11,18.30
2009,07,02,12,12,18.50
2009,07,02,12,13,18.60
2009,07,02,12,14,18.70
2009,07,02,12,15,18.90
2009,07,02,12,16,19.00
2009,07,02,12,17,19.10
2009,07,02,12,18,19.10
2009,07,02,12,19,19.10
2009,07,02,12,20,19.00
2009,07,02,12,21,19.10
2009,07,02,12,22,19.10
2009,07,02,12,23,19.20
2009,07,02,12,24,19.30
2009,07,02,12,25,19.30
2009,07,02,12,26,19.30
2009,07,02,12,27,19.30
2009,07,02,12,28,19.20
2009,07,02,12,29,19.30
2009,07,02,12,30,19.40
2009,07,02,12,31,19.50
2009,07,02,12,32,19.50
2009,07,02,12,33,19.60
2009,07,02,12,34,19.70
2009,07,02,12,35,19.70
2009,07,02,12,36,19.60
2009,07,02,12,37,19.60
2009,07,02,12,38,19.60
2009,07,02,12,39,19.60
2009,07,02,12,40,19.60
2009,07,02,12,41,19.60
2009,07,02,12,42,19.50
2009,07,02,12,43,19.40
2009,07,02,12,44,19.40
2009,07,02,12,45,19.40
2009,07,02,12,46,19.40
2009,07,02,12,47,19.40
2009,07,02,12,48,19.50
2009,07,02,12,49,19.60
2009,07,02,12,50,19.60
2009,07,02,12,51,19.60
2009,07,02,12,52,19.60
2009,07,02,12,53,19.60
2009,07,02,12,54,19.60
2009,07,02,12,55,19.70
2009,07,02,12,56,19.70
2009,07,02,12,57,19.70
2009,07,02,12,58,19.70
2009,07,02,12,59,19.80
2009,07,02,13,00,19.80
2009,07,02,13,01,19.90
2009,07,02,13,02,19.90
2009,07,02,13,03,19.90
2009,07,02,13,04,19.90
2009,07,02,13,05,19.90
2009,07,02,13,06,19.90
2009,07,02,13,07,19.90
2009,07,02,13,08,19.80
2009,07,02,13,09,19.70
2009,07,02,13,10,19.70
2009,07,02,13,11,19.80
2009,07,02,13,12,19.90
2009,07,02,13,13,20.00
2009,07,02,13,14,20.00
2009,07,02,13,15,20.00
2009,07,02,13,16,19.90
2009,07,02,13,17,19.80
2009,07,02,13,18,19.80
2009,07,02,13,19,19.80
2009,07,02,13,20,19.80
2009,07,02,13,21,19.80
2009,07,02,13,22,19.90
2009,07,02,13,23,19.90
2009,07,02,13,24,19.90
2009,07,02,13,25,20.00
2009,07,02,13,26,20.10
2009,07,02,13,27,20.20
2009,07,02,13,28,20.30
2009,07,02,13,29,20.50
2009,07,02,13,30,20.60
2009,07,02,13,31,20.60
2009,07,02,13,32,20.70
2009,07,02,13,33,20.60
2009,07,02,13,34,20.60
2009,07,02,13,35,20.60
2009,07,02,13,36,20.70
2009,07,02,13,37,20.70
2009,07,02,13,38,20.80
2009,07,02,13,39,21.00
2009,07,02,13,40,21.10
2009,07,02,13,41,21.10
2009,07,02,13,42,21.10
2009,07,02,13,43,21.00
2009,07,02,13,44,21.00
2009,07,02,13,45,21.00
2009,07,02,13,46,21.00
2009,07,02,13,47,21.00
2009,07,02,13,48,21.10
2009,07,02,13,49,21.20
2009,07,02,13,50,21.20
2009,07,02,13,51,21.10
2009,07,02,13,52,21.00
2009,07,02,13,53,20.90
2009,07,02,13,54,21.00
2009,07,02,13,55,21.00
2009,07,02,13,56,21.10
2009,07,02,13,57,21.10
2009,07,02,13,58,21.20
2009,07,02,13,59,21.30
2009,07,02,14,00,21.30
2009,07,02,14,01,21.30
2009,07,02,14,02,21.30
2009,07,02,14,03,21.30
2009,07,02,14,04,21.30
2009,07,02,14,05,21.40
2009,07,02,14,06,21.50
2009,07,02,14,07,21.60
2009,07,02,14,08,21.60
2009,07,02,14,09,21.60
2009,07,02,14,10,21.50
2009,07,02,14,11,21.40
2009,07,02,14,12,21.40
2009,07,02,14,13,21.30
2009,07,02,14,14,21.30
2009,07,02,14,15,21.30
2009,07,02,14,16,21.40
2009,07,02,14,17,21.40
2009,07,02,14,18,21.40
2009,07,02,14,19,21.40
2009,07,02,14,20,21.40
2009,07,02,14,21,21.40
2009,07,02,14,22,21.40
2009,07,02,14,23,21.30
2009,07,02,14,24,21.30
2009,07,02,14,25,21.40
2009,07,02,14,26,21.40
2009,07,02,14,27,21.50
2009,07,02,14,28,21.40
2009,07,02,14,29,21.30
2009,07,02,14,30,21.30
2009,07,02,14,31,21.30
2009,07,02,14,32,21.40
2009,07,02,14,33,21.40
2009,07,02,14,34,21.40
2009,07,02,14,35,21.40
2009,07,02,14,36,21.40
2009,07,02,14,37,21.40
2009,07,02,14,38,21.40
2009,07,02,14,39,21.40
2009,07,02,14,40,21.40
2009,07,02,14,41,21.50
2009,07,02,14,42,21.60
2009,07,02,14,43,21.70
2009,07,02,14,44,21.70
2009,07,02,14,45,21.70
2009,07,02,14,46,21.70
2009,07,02,14,47,21.70
2009,07,02,14,48,21.70
2009,07,02,14,49,21.80
2009,07,02,14,50,21.80
2009,07,02,14,51,21.90
2009,07,02,14,52,21.90
2009,07,02,14,53,21.90
2009,07,02,14,54,21.90
2009,07,02,14,55,21.90
2009,07,02,14,56,21.80
2009,07,02,14,57,21.80
2009,07,02,14,58,21.70
2009,07,02,14,59,21.70
2009,07,02,15,00,21.70
2009,07,02,15,01,21.80
2009,07,02,15,02,21.80
2009,07,02,15,03,21.80
2009,07,02,15,04,21.80
2009,07,02,15,05,21.80
2009,07,02,15,06,21.80
2009,07,02,15,07,22.00
2009,07,02,15,08,22.10
2009,07,02,15,09,22.20
2009,07,02,15,10,22.20
2009,07,02,15,11,22.20
2009,07,02,15,12,22.20
2009,07,02,15,13,22.20
2009,07,02,15,14,22.30
2009,07,02,15,15,22.40
2009,07,02,15,16,22.50
2009,07,02,15,17,22.60
2009,07,02,15,18,22.70
2009,07,02,15,19,22.70
2009,07,02,15,20,22.80
2009,07,02,15,21,22.80
2009,07,02,15,22,22.80
2009,07,02,15,23,22.80
2009,07,02,15,24,22.80
2009,07,02,15,25,22.90
2009,07,02,15,26,23.00
2009,07,02,15,27,22.90
2009,07,02,15,28,22.80
2009,07,02,15,29,22.70
2009,07,02,15,30,22.60
2009,07,02,15,31,22.60
2009,07,02,15,32,22.70
2009,07,02,15,33,22.70
2009,07,02,15,34,22.80
2009,07,02,15,35,22.90
2009,07,02,15,36,22.90
2009,07,02,15,37,23.00
2009,07,02,15,38,23.10
2009,07,02,15,39,23.30
2009,07,02,15,40,23.30
2009,07,02,15,41,23.30
2009,07,02,15,42,23.30
2009,07,02,15,43,23.30
2009,07,02,15,44,23.20
2009,07,02,15,45,23.10
2009,07,02,15,46,23.20
2009,07,02,15,47,23.20
2009,07,02,15,48,23.30
2009,07,02,15,49,23.30
2009,07,02,15,50,23.30
2009,07,02,15,51,23.30
2009,07,02,15,52,23.40
2009,07,02,15,53,23.40
2009,07,02,15,54,23.40
2009,07,02,15,55,23.40
2009,07,02,15,56,23.40
2009,07,02,15,57,23.40
2009,07,02,15,58,23.30
2009,07,02,15,59,23.30
2009,07,02,16,00,23.30
2009,07,02,16,01,23.30
2009,07,02,16,02,23.20
2009,07,02,16,03,23.20
2009,07,02,16,04,23.20
2009,07,02,16,05,23.30
2009,07,02,16,06,23.40
2009,07,02,16,07,23.50
2009,07,02,16,08,23.50
2009,07,02,16,09,23.60
2009,07,02,16,10,23.60
2009,07,02,16,11,23.60
2009,07,02,16,12,23.60
2009,07,02,16,13,23.60
2009,07,02,16,14,23.60
2009,07,02,16,15,23.60
2009,07,02,16,16,23.60
2009,07,02,16,17,23.60
2009,07,02,16,18,23.50
2009,07,02,16,19,23.40
2009,07,02,16,20,23.30
2009,07,02,16,21,23.30
2009,07,02,16,22,23.30
2009,07,02,16,23,23.30
2009,07,02,16,24,23.30
2009,07,02,16,25,23.40
2009,07,02,16,26,23.30
2009,07,02,16,27,23.30
2009,07,02,16,28,23.20
2009,07,02,16,29,23.20
2009,07,02,16,30,23.20
2009,07,02,16,31,23.30
2009,07,02,16,32,23.30
2009,07,02,16,33,23.40
2009,07,02,16,34,23.50
2009,07,02,16,35,23.60
2009,07,02,16,36,23.70
2009,07,02,16,37,23.80
2009,07,02,16,38,23.80
2009,07,02,16,39,23.90
2009,07,02,16,40,23.90
2009,07,02,16,41,23.90
2009,07,02,16,42,23.90
2009,07,02,16,43,23.90
2009,07,02,16,44,24.00
2009,07,02,16,45,24.10
2009,07,02,16,46,24.10
2009,07,02,16,47,24.10
2009,07,02,16,48,24.20
2009,07,02,16,49,24.20
2009,07,02,16,50,24.30
2009,07,02,16,51,24.40
2009,07,02,16,52,24.40
2009,07,02,16,53,24.40
2009,07,02,16,54,24.40
2009,07,02,16,55,24.40
2009,07,02,16,56,24.30
2009,07,02,16,57,24.30
2009,07,02,16,58,24.30
2009,07,02,16,59,24.30
2009,07,02,17,00,24.40
2009,07,02,17,01,24.40
2009,07,02,17,02,24.40
2009,07,02,17,03,24.40
2009,07,02,17,04,24.40
2009,07,02,17,05,24.30
2009,07,02,17,06,24.30
2009,07,02,17,07,24.30
2009,07,02,17,08,24.30
2009,07,02,17,09,24.20
2009,07,02,17,10,24.20
2009,07,02,17,11,24.20
2009,07,02,17,12,24.10
2009,07,02,17,13,24.10
2009,07,02,17,14,24.10
2009,07,02,17,15,24.10
2009,07,02,17,16,24.10
2009,07,02,17,17,24.20
2009,07,02,17,18,24.20
2009,07,02,17,19,24.20
2009,07,02,17,20,24.20
2009,07,02,17,21,24.30
2009,07,02,17,22,24.30
2009,07,02,17,23,24.30